Regional Weather Roundup
Issued by NWS

Home | Current Version | Previous Version | Graphics & Text | Print | Product List | Glossary On
Versions: 1 2 3 4 5 6 7 8 9 10 11 12 13 14 15 16 17 18 19 20 21 22 23 24 25 26 27 28 29 30 31 32 33 34 35 36 37 38 39 40 41 42 43 44 45 46 47 48 49 50
935
ASUS43 KOAX 231010
RWRNE

WEATHER ROUNDUP FOR NEBRASKA
NATIONAL WEATHER SERVICE OMAHA NE
500 AM CDT FRI JUN 23 2017

NOTES: SATELLITE DATA IS BEING USED TO AUGMENT CLOUD COVER ABOVE
       12000 FEET.
       "FAIR" INDICATES FEW OR NO CLOUDS BELOW 12,000 FEET WITH NO
       SIGNIFICANT WEATHER AND/OR OBSTRUCTIONS TO VISIBILITY.

  * THESE STATIONS DO NOT REPORT WEATHER SUCH AS RAIN...SNOW OR FOG.

NEZ001>004-019>022-054>056-231100-
NEBRASKA PANHANDLE

CITY           SKY/WX    TMP DP  RH WIND       PRES   REMARKS
SCOTTSBLUFF    CLOUDY    57  40  52 N17G30    30.24R
ALLIANCE       CLOUDY    55  38  52 N15       30.18R
CHADRON        LGT RAIN  52  47  83 SW8       30.18F
GORDON         HVY RAIN  50  45  81 NW10      30.17R
KIMBALL        RAIN      53  49  86 N7        30.23R
SIDNEY         LGT RAIN  54  46  74 N12       30.19R
$$

NEZ057>060-069>072-079>082-231100-
SOUTHWEST NEBRASKA

CITY           SKY/WX    TMP DP  RH WIND       PRES   REMARKS
NORTH PLATTE   CLOUDY    62  47  57 N9        30.04R
IMPERIAL       LGT RAIN  59  52  77 N3        30.09R
LEXINGTON      LGT RAIN  62  54  75 NW5       30.00R
MCCOOK         LGT RAIN  61  54  77 W8        30.08R
OGALLALA       CLOUDY    62  45  52 N13G24    30.11R
$$

NEZ005>010-023>029-035>040-094-231100-
NORTH CENTRAL NEBRASKA

CITY           SKY/WX    TMP DP  RH WIND       PRES   REMARKS
VALENTINE      CLOUDY    61  35  37 NW14      30.09R
AINSWORTH      MOCLDY    60  38  45 N17G25    30.07R
BROKEN BOW     CLOUDY    64  45  49 N20       29.99R
O`NEILL        MOCLDY    61  44  54 NW13      30.01R
ORD            LGT RAIN  63  44  50 N17G25    29.94R
THEDFORD       CLOUDY    59  42  54 N7        30.10R
$$

NEZ041-046>049-061>064-073>077-083>087-231100-
SOUTH CENTRAL NEBRASKA

CITY           SKY/WX    TMP DP  RH WIND       PRES   REMARKS
GRAND ISLAND   CLOUDY    61  57  87 NW9       29.96R
AURORA         CLOUDY    60  56  84 NW8       29.92R
HASTINGS       CLOUDY    64  54  69 N16       29.95R
HEBRON         PTCLDY    67  59  75 N5        29.87R
HOLDREGE       CLOUDY    62  51  67 N10       29.98R
KEARNEY *      CLOUDY    63  50  63 NW12      30.00R
YORK           CLOUDY    63  57  82 NW7       29.92R
$$

NEZ011>018-030>034-042>045-231100-
NORTHEAST NEBRASKA

CITY           SKY/WX    TMP DP  RH WIND       PRES   REMARKS
NORFOLK        CLOUDY    57  52  83 NW5       29.90R
ALBION         MOCLDY    59  51  74 W3        29.93R
BLAIR          CLEAR     62  55  79 NW8       29.84R
FREMONT        CLEAR     59  52  78 NW5       29.85S
TEKAMAH        PTCLDY    57  51  80 NW7       29.85R
WAYNE          PTCLDY    57  53  86 NW7       29.89R
$$

NEZ050>053-065>068-078-088>093-231100-
SOUTHEAST NEBRASKA

CITY           SKY/WX    TMP DP  RH WIND       PRES   REMARKS
LINCOLN        CLOUDY    65  58  78 N10       29.83S
OMAHA EPPLEY   MOCLDY    65  55  70 N10       29.81R
BEATRICE       CLOUDY    68  59  73 NE8       29.82F
FALLS CITY     MOCLDY    68  63  84 N6        29.79R
NEBRASKA CITY  CLOUDY    66  64  96 N6        29.82R
PLATTSMOUTH    CLEAR     64  57  80 N3        29.82R
$$

NEZ044-045-051>053-067-231100-
OMAHA AREA

CITY           SKY/WX    TMP DP  RH WIND       PRES   REMARKS
OMAHA EPPLEY   MOCLDY    65  55  70 N10       29.81R
BLAIR          CLEAR     62  55  79 NW8       29.84R
FREMONT        CLEAR     59  52  78 NW5       29.85S
MILLARD        CLEAR     68  61  77 NW5       29.82R
OFFUTT AFB     PTCLDY    68  54  60 CALM      29.88R
PLATTSMOUTH    CLEAR     64  57  80 N3        29.82R
WAHOO          FAIR      61  52  73 N12       29.84S
$$




USA.gov is the U.S. government's official web portal to all federal, state and local government web resources and services.